Regional Weather Roundup
Issued by NWS

Home | Current Version | Previous Version | Text Only | Print | Product List | Glossary On
Versions: 1 2 3 4 5 6 7 8 9 10 11 12 13 14 15 16 17 18 19 20 21 22 23 24 25 26 27 28 29 30 31 32 33 34 35 36 37 38 39 40 41 42 43 44 45 46 47 48 49 50
000
ASHW40 PHFO 241132
RWRHI

WEATHER ROUNDUP FOR HAWAII
NATIONAL WEATHER SERVICE HONOLULU HI
100 AM HST MON APR 24 2017

THIS IS AN AUTOMATED REPORT THAT HAS NOT BEEN QUALITY CONTROLLED.

NOTE..."FAIR" INDICATES FEW OR NO CLOUDS BELOW 12,000 FEET WITH NO
SIGNIFICANT WEATHER AND/OR OBSTRUCTIONS TO VISIBILITY.

* - THESE SITES REPORT LIMITED FIELDS

HIZ001>004-241200-
KAUAI-NIIHAU-

CITY           SKY/WX    TMP DP  RH WIND       PRES   REMARKS
LIHUE APT      MOCLDY    77  66  68 NE13      30.08F
PORT ALLEN*      N/A     73 N/A N/A NE9         N/A
POIPU*           N/A     75 N/A N/A NE6G12      N/A
PRINCEVILLE*     N/A     72 N/A N/A S2          N/A
KOKOLE POINT*  NOT AVBL
MOLOAA DAIRY*    N/A     73  68  83 E3G9        N/A
WAIMEA HTS*    NOT AVBL
PUU OPAE*      NOT AVBL
PUU LUA*       NOT AVBL
MAKAHA RIDGE*    N/A     66  55  68 E2G12       N/A
$$

HIZ005>011-241200-
OAHU-

CITY           SKY/WX    TMP DP  RH WIND       PRES   REMARKS
HONOLULU       PTCLDY    75  65  70 E10       30.05F
KALAELOA       CLEAR    N/A N/A N/A NE5       30.06F
KANEOHE MCB    NOT AVBL
WHEELER FIELD  FAIR      67  65  94 CALM      30.06F
BELLOWS*         N/A    N/A N/A N/A NE15        N/A
KAHUKU*          N/A    N/A N/A N/A NE7         N/A
WHEELER*       NOT AVBL
WAIANAE HARBOR NOT AVBL
DILLINGHAM*      N/A     66  64  94 W1          N/A
KAHUKU TRN*      N/A     72  66  83 W5G15       N/A
KAWAILOA*        N/A     70  64  83 E6G13       N/A
KII*             N/A     75  66  73 E15         N/A
MAKUA RANGE*     N/A     73  64  73 W5G10       N/A
OAHU FOREST NW NOT AVBL
SCHOFIELD BRK*   N/A     64  63  94 MISG        N/A
SCHOFIELD S*   NOT AVBL
WAIANAE VLY*   NOT AVBL
KUAOKALA*      NOT AVBL
HONOULIUULI*   NOT AVBL
MOKUOLOE IS*   NOT AVBL
PALEHUA*       NOT AVBL
WAIAWA PHB*    NOT AVBL
$$

HIZ012>013-241200-
MOLOKAI-

CITY           SKY/WX    TMP DP  RH WIND       PRES   REMARKS
MOLOKAI AIRPT  PTCLDY    67  64  90 N6        30.06F
KALAUPAPA      NOT AVBL
MAKAPULAPAI*     N/A     75  68  78 E16G23      N/A
MOLOKAI 1*     NOT AVBL
PUU ALII*        N/A     57  56  95 E2G12       N/A
$$

HIZ016-241200-
KAHOOLAWE-

CITY           SKY/WX    TMP DP  RH WIND       PRES   REMARKS
KAHOOLAWE*     NOT AVBL
HAKIOAWA*        N/A     69  62  79 MISG      30.45F
HONOKANAIA*      N/A     76  65  68 NE8G21    29.98F
KANELOA*         N/A     73  64  73 NE17G26     N/A
KEALIALALO*    NOT AVBL
LUA MAKIKA*    NOT AVBL
$$

HIZ014>015-241200-
LANAI-

CITY           SKY/WX    TMP DP  RH WIND       PRES   REMARKS
LANAI CITY     FAIR      68  64  87 NE5       30.09F
LANAI 1*       NOT AVBL
$$

HIZ017>028-241200-
MAUI-

CITY           SKY/WX    TMP DP  RH WIND       PRES   REMARKS
KAHULUI        CLOUDY    69  64  84 CALM      30.03F
KAPALUA-W MAUI NOT AVBL
HANA AIRPORT   NOT AVBL
HANA*            N/A     73 N/A N/A SE3         N/A
HALEAKALA SUMM   N/A     39   9  28 E28         N/A  WCI  28
MAALAEA BAY*     N/A     75 N/A N/A VRB12G18    N/A
HALEAKALA*     NOT AVBL
KAUPO GAP*     NOT AVBL
KULA 1*          N/A     56  12  17 E10G28      N/A
$$

HIZ023>026-241200-
BIG ISLAND OF HAWAII COAST AND LOWER SLOPES-

CITY           SKY/WX    TMP DP  RH WIND       PRES   REMARKS
KAILUA KONA    PTCLDY    76  66  71 SE8       30.00F
HILO           CLOUDY    69  65  86 SW5       30.06F
HONOKAA*         N/A     64 N/A N/A VRB1        N/A
KAWAIHAE MWT*    N/A     77 N/A N/A N6          N/A
KAWAIHAE*        N/A     79 N/A N/A N3        30.01F
SOUTH POINT*     N/A     70 N/A N/A N16G24      N/A
UPOLU AIRPORT* NOT AVBL
KAMUELA*       PTSUNNY   57  55  94 SE3       30.12F
HAKALAU*         N/A    N/A N/A N/A SW6G12      N/A
KALOKO-HONOKO* NOT AVBL
PALI 2*          N/A     64  45  48 S12         N/A
KEALAKOMO*       N/A     75  64  69 NE14G20     N/A
KAUPULEHU*     NOT AVBL
KAPAPALA*        N/A     56  51  84 N3          N/A
LOWER KAHUKU*    N/A     57  54  88 N3G10       N/A
PUHE CS*         N/A     77  64  65 N2          N/A
PUHO CS*         N/A     72  64  75 NE3         N/A
PTA KEAMUKU*     N/A     57  54  88 CALM        N/A
WAIKOLOA*      NOT AVBL
$$

HIZ027>028-241200-
BIG ISLAND OF HAWAII INTERIOR AND SUMMMITS-

CITY           SKY/WX    TMP DP  RH WIND       PRES   REMARKS
BRADSHAW FIELD PTCLDY    59   8  13 SE16G26   30.32F
MK VISITOR CEN   N/A     43   7  22 E10         N/A
MAUNA KEA*       N/A     32 -18  10 E13         N/A  WCI  22
MAUNA LOA*     NOT AVBL
MAUNA LOA 1*   NOT AVBL
PTA KIPUKA*      N/A     54  54 100 E3          N/A
PTA RANGE 17*    N/A     61   7  11 E20G30      N/A
PTA WEST*        N/A     70  63  78 SE7         N/A
NENE CABIN*      N/A     52   7  16 NE9G17      N/A
AHUMOA*        NOT AVBL
PTA PORTABLE*  NOT AVBL
PUU MALI*        N/A     50  43  76 S6          N/A
$$

HIC003-241200-
NORTHWEST ISLANDS-

CITY           SKY/WX    TMP DP  RH WIND       PRES   REMARKS
MIDWAY ISLAND  CLEAR     72  70  94 SW9       30.03F
MIDWAY NOS*      N/A     72 N/A N/A MISG      30.01F
FRENCH FRIGATE NOT AVBL
$$

PHZ110>124-180-241200-
BUOY REPORTS

STATION/POSITION TIME  TEMP    WIND        PRES    WAVE   SWELL
                       AIR SEA DIR/SP/G            HT/PER HT/DIR
                 (UTC) (F)     (DEG/KT/KT) (MB)    (FT/S) (FT/D)
BUOY 51001       1110   75 76  130/ 14/ 16 1017.8
BUOY 51101       1050   75 76  120/ 12/ 16 1018.4F   5/ 8   5/ 90
BUOY 51100       NOT AVBL
BUOY 51002       1110   78 79   80/ 19/ 23 1014.9
BUOY 51003       1050   78 79   90/ 12/ 14 1016.4F   6/ 8   5/110
BUOY 51004       1050      77   80/ 17/ 21 1015.8F   8/ 8   5
BARBERS PT BUOY  NOT AVBL
WAIMEA BAY BUOY  1102      77                N/A     4/10   2/ 10
KAILUA BAY BUOY  1104      78                N/A     6/10   2/ 10
LANAI BUOY       1115      78                N/A     3/11   2/200
BARBERS PT 2     NOT AVBL
PAUWELA MAUI     1109      77                N/A     6/11   2/360
HILO             1112      78                N/A     7/11   3
KANEOHE BAY BUOY 1055      78                N/A     6/11   3/ 10
HANALEI KAUAI    1052      77                N/A     5/ 8   2/360
KAHULUI HARBOR   1100   74 79  350/  3/  4 1017.0
HONOLULU HARBOR  1100   76 79   CALM  /  3 1018.2
KILO NALU        NOT AVBL
HILO HARBOR      1100   71 77  210/  5/  8 1017.7
MOKUOLOE         1036   76 79   90/  8/ 12 1018.1F
NAWILIWILI       1100   76      60/  8/ 12 1017.9
WHOTS BUOY       NOT AVBL
BUOY 51028       NOT AVBL
$$

......................KEY........................................
  SKY/WX - SKY CONDITIONS/PRESENT WEATHER
  TMP    - TEMPERATURE IN FAHRENHEIT
  DWPT   - DEWPOINT IN FAHRENHEIT
  RH     - RELATIVE HUMIDITY IN PERCENT
  WIND   - DIRECTION AND SPEED /MPH FOR ISLANDS...KTS FOR BUOYS/
  PRES   - MEAN SEA LEVEL PRESSURE IN INCHES OF HG
  VSB    - VISIBILITY IN MILES
  HX     - HEAT INDEX
  WCI    - WIND CHILL INDEX
  VRB    - VARIABLE WIND DIRECTION
  N/A    - NOT AVAILABLE




USA.gov is the U.S. government's official web portal to all federal, state and local government web resources and services.